Погода в Фабричном

Россия / Свердловская область     58°05′32″N   63°45′50″E
темп.,
°C
ветер,
м/с
пор.,
м/с
влажн.,
%
обл.,
%
осадки,
мм/ч
давл.,
гПа
погр.,
м
23 сентября, чт
чт2323:00+3с2475100 0.0 102780
02:00+4ссз247398 0.0 102798
05:00+4ссз2574100 0.0 1028152
08:00+4сз2577100 0.0 1029222
11:00+8ссз236794 0.0 1029601
14:00+10ссз2354100 0.0 10291495
17:00+10ююз025254 0.0 1028815
20:00+5юз22755 0.0 102913
24 сентября, пт
пт2423:00+3юз22845 0.0 102931
02:00+2юз35885 0.0 102966
05:00+2юз368867 0.0 1029108
08:00+3юз3878100 0.0 1029195
11:00+10юз3553100 0.0 1028539
14:00+12юз3445100 0.0 1027956
17:00+12ююз125495 0.0 102637
20:00+7ююв1171100 0.0 102610
25 сентября, сб
сб2523:00+6юв1276100 0.0 102610
02:00+4в11825 0.0 102610
05:00+4ююв2281100 0.0 102522
08:00+4в24815 0.0 1026109
11:00+10в35575 0.0 1026584
14:00+13в44495 0.0 10251083
17:00+12в45575 0.0 10251009
20:00+5в411705 0.0 1026256
26 сентября, вс
вс2623:00+3в4117934 0.0 1027300
02:00+1в310855 0.0 1027250
05:000в4108470 0.0 1028245
08:00+1в4117461 0.0 1029348
11:00+6вюв58528 0.0 1029956
14:00+8в674120 0.0 10281240
17:00+8в574610 0.0 10291291
20:00+3всв411685 0.0 1030295
27 сентября, пн
пн2723:00+1в411775 0.0 1031342
02:000всв49865 0.0 1031270
05:00−2всв39935 0.0 1032242
08:00−1всв4118474 0.0 1033321
11:00+5всв5857100 0.0 10331405
14:00+6всв5852100 0.0 10331598
17:00+5св5856100 0.0 10331454
20:00+4ссв497395 0.0 1034552